[[{"header":{"parameterUnit":"m.s-1","parameterCategory":1,"la1":30.2991,"la2":30.254,"lo1":-89.0895,"lo2":-89.0444,"dy":0.0017,"dx":0.0017,"nx":28,"ny":28,"refTime":"2025-03-29T21:00:00:Z","depth":0,"parameterNumber":2,"parameterNumberName":"U-component_of_WINDS"},"data":[0,0,0,0,0,0,0,0,0,0,0,0,0,0,0,0,0,0,0,0,0,0,0,0,0,0,0,0,0,0,0,0,0,0,0,0,0,0,0,0,0,0,0,0,0,0,0,0,0,0,0,0,0,0,0,0,0,0,-1.4021,-1.4022,0,-1.4102,-1.4103,-1.4104,-1.4131,-1.4131,-1.4131,-1.413,-1.4213,-1.4216,-1.4218,0,0,0,0,0,0,0,0,0,0,0,0,0,-1.3891,-1.3893,-1.4021,-1.4022,-1.4023,-1.4102,-1.4103,-1.4104,-1.4131,-1.4131,-1.413,-1.413,-1.4213,-1.4216,-1.4219,0,0,0,0,0,0,0,0,0,0,0,0,0,-1.3957,-1.3894,-1.4021,-1.4046,-1.4049,-1.4101,-1.4103,-1.4104,-1.4131,-1.4131,-1.413,-1.413,-1.4212,-1.4215,-1.4219,-1.4252,0,0,-1.4231,-1.4232,0,0,0,0,0,0,0,0,-1.3953,-1.3962,-1.4041,-1.4044,-1.4048,-1.4106,-1.4088,-1.4154,-1.4131,-1.41,-1.413,-1.413,-1.4178,-1.4185,-1.4201,-1.4256,-1.426,-1.4231,-1.4233,-1.4235,-1.4236,0,0,0,0,0,0,0,-1.3949,-1.3959,-1.4053,-1.4042,-1.4046,-1.4054,-1.4063,-1.41,-1.4141,-1.4103,-1.4105,-1.4114,-1.418,-1.4197,-1.4203,-1.4261,-1.4231,-1.4234,-1.4237,-1.4238,-1.4348,-1.4348,0,0,0,0,0,0,-1.394,-1.3955,-1.405,-1.4055,-1.3998,-1.4056,-1.4066,-1.4088,-1.4141,-1.4148,-1.4115,-1.4115,-1.4191,-1.4199,-1.4206,-1.4248,-1.4235,-1.4238,-1.4241,-1.4347,-1.4348,-1.4348,0,0,0,0,0,0,-1.3937,-1.3948,-1.4047,-1.4006,-1.4019,-1.4059,-1.4083,-1.409,-1.4107,-1.4149,-1.4157,-1.4125,-1.4191,-1.4201,-1.4241,-1.4251,-1.424,-1.4243,-1.4346,-1.4347,-1.4348,-1.4333,0,0,0,0,0,0,-1.3933,-1.3947,-1.396,-1.4006,-1.4021,-1.408,-1.4084,-1.4092,-1.4113,-1.4115,-1.4161,-1.4168,-1.4191,-1.4235,-1.4244,-1.4256,-1.4246,-1.4345,-1.4347,-1.4348,-1.4332,-1.4333,-1.4333,0,0,0,0,0,-1.3928,-1.3952,-1.396,-1.3971,-1.4038,-1.408,-1.4089,-1.4115,-1.4114,-1.4127,-1.4155,-1.4167,-1.4249,-1.4239,-1.425,-1.4263,-1.4345,-1.4346,-1.4348,-1.4332,-1.4333,-1.4333,0,0,0,0,0,0,-1.3906,-1.3959,-1.3968,-1.4007,-1.4039,-1.4085,-1.4102,-1.4115,-1.4148,-1.4148,-1.4179,-1.419,-1.4227,-1.4249,-1.4237,-1.4298,-1.4297,-1.4301,-1.4282,-1.4283,-1.4283,-1.4277,-1.425,0,0,0,0,0,-1.3906,-1.3936,-1.398,-1.4011,-1.4026,-1.4062,-1.4081,-1.4099,-1.4133,-1.4147,-1.4177,-1.421,-1.4243,-1.4264,-1.4298,-1.4336,-1.4346,-1.4351,-1.4351,-1.4352,-1.4354,-1.4376,-1.4379,-1.4353,-1.4353,-1.4353,0,0,-1.3906,-1.3938,-1.3955,-1.4007,-1.4034,-1.4065,-1.4073,-1.4105,-1.4128,-1.4152,-1.4191,-1.4214,-1.4253,-1.4292,-1.4311,-1.4312,-1.4364,-1.4353,-1.4353,-1.4356,-1.4378,-1.438,-1.4382,-1.4354,-1.4354,-1.4354,0,0,-1.3921,-1.3948,-1.3977,-1.4003,-1.4044,-1.4067,-1.4074,-1.4118,-1.4134,-1.4174,-1.4193,-1.4221,-1.4278,-1.4305,-1.4326,-1.4352,-1.4364,-1.4362,-1.4364,-1.4385,-1.4387,-1.4389,-1.4398,-1.4401,-1.4364,-1.4364,-1.4364,0,-1.3915,-1.3962,-1.399,-1.4021,-1.4043,-1.4066,-1.4095,-1.412,-1.4169,-1.4184,-1.4184,-1.4256,-1.4284,-1.433,-1.4336,-1.4353,-1.4362,-1.4356,-1.4385,-1.4387,-1.4389,-1.4398,-1.4401,-1.4364,-1.4364,-1.4364,-1.4364,0,-1.3953,-1.3985,-1.4004,-1.405,-1.4075,-1.4105,-1.4137,-1.4159,-1.4174,-1.4198,-1.4238,-1.4273,-1.4313,-1.4325,-1.4341,-1.4374,-1.4373,-1.4379,-1.4379,-1.4391,-1.4399,-1.4403,-1.4363,-1.4363,-1.4363,-1.4363,0,0,-1.3956,-1.4018,-1.4024,-1.4045,-1.4092,-1.4117,-1.4149,-1.4188,-1.4206,-1.4239,-1.4266,-1.4314,-1.432,-1.4344,-1.4363,-1.4381,-1.4399,-1.4385,-1.4386,-1.4386,-1.4437,-1.4432,-1.4436,-1.4408,-1.4409,-1.4409,-1.4434,0,-1.3977,-1.4033,-1.4059,-1.4103,-1.4134,-1.4156,-1.4183,-1.4215,-1.4238,-1.4267,-1.4293,-1.4326,-1.4331,-1.4346,-1.4365,-1.4393,-1.441,-1.4392,-1.4433,-1.4434,-1.4422,-1.444,-1.4435,-1.4456,-1.4438,-1.4438,-1.4439,0,-1.4008,-1.4041,-1.4088,-1.4131,-1.4145,-1.4169,-1.4207,-1.4235,-1.4272,-1.4287,-1.4314,-1.4332,-1.4366,-1.4365,-1.4412,-1.4399,-1.4418,-1.4434,-1.4435,-1.444,-1.4437,-1.4445,-1.4464,-1.4467,-1.4445,-1.4444,-1.4444,0,-1.4005,-1.4061,-1.4097,-1.4115,-1.4166,-1.4182,-1.4204,-1.424,-1.4262,-1.4296,-1.4311,-1.4348,-1.4368,-1.4397,-1.4425,-1.4421,-1.447,-1.447,-1.4484,-1.4483,-1.4492,-1.4491,-1.4514,-1.4505,-1.4505,-1.4505,-1.4505,0,-1.4025,-1.4053,-1.4096,-1.4118,-1.415,-1.418,-1.4212,-1.4235,-1.4267,-1.4295,-1.4317,-1.4342,-1.4378,-1.4408,-1.443,-1.4466,-1.4475,-1.4488,-1.4494,-1.4486,-1.4484,-1.4498,-1.4497,-1.4506,-1.4506,-1.4505,-1.4505,0,-1.4026,-1.4056,-1.4096,-1.4142,-1.4154,-1.4175,-1.4214,-1.4237,-1.4261,-1.4295,-1.4305,-1.4343,-1.4379,-1.441,-1.4458,-1.4473,-1.451,-1.4517,-1.4497,-1.45,-1.4511,-1.451,-1.4544,-1.455,-1.4537,-1.4537,-1.4537,0,-1.4036,-1.4058,-1.4106,-1.4125,-1.4147,-1.4179,-1.4201,-1.4232,-1.4255,-1.4298,-1.4315,-1.4353,-1.4385,-1.4442,-1.4474,-1.4511,-1.4519,-1.4528,-1.4524,-1.4516,-1.4518,-1.4516,-1.4519,-1.4528,-1.4528,-1.4528,-1.4528,0,-1.4052,-1.4065,-1.4097,-1.4134,-1.416,-1.4191,-1.4222,-1.4237,-1.4273,-1.4298,-1.4335,-1.436,-1.4409,-1.4446,-1.4486,-1.451,-1.4525,-1.4529,-1.4534,-1.4526,-1.4513,-1.452,-1.4497,-1.4528,-1.4528,-1.4528,-1.4528,-1.4528,-1.4058,-1.4078,-1.4115,-1.4149,-1.4176,-1.4205,-1.4228,-1.4255,-1.4286,-1.4328,-1.4345,-1.4383,-1.4419,-1.4475,-1.4498,-1.4529,-1.4531,-1.4538,-1.454,-1.4541,-1.454,-1.4509,-1.4536,-1.4536,-1.4536,-1.4537,-1.4537,0,-1.4074,-1.4098,-1.413,-1.4172,-1.42,-1.4212,-1.4247,-1.4269,-1.4302,-1.4334,-1.4365,-1.4408,-1.4445,-1.448,-1.4518,-1.4536,-1.4544,-1.4545,-1.4543,-1.4549,-1.4536,-1.4527,-1.4538,-1.4538,-1.4538,-1.4538,-1.4538,-1.4538,-1.4085,-1.4121,-1.4139,-1.4188,-1.4213,-1.425,-1.4269,-1.4295,-1.4322,-1.4368,-1.4399,-1.4421,-1.4455,-1.4496,-1.453,-1.454,-1.4553,-1.4552,-1.4563,-1.455,-1.4549,-1.4549,-1.4541,-1.4554,-1.4554,-1.4573,-1.4573,-1.4574]},{"header":{"parameterUnit":"m.s-1","parameterCategory":1,"la1":30.2991,"la2":30.254,"lo1":-89.0895,"lo2":-89.0444,"dy":0.0017,"dx":0.0017,"nx":28,"ny":28,"refTime":"2025-03-29T21:00:00:Z","depth":0,"parameterNumber":3,"parameterNumberName":"V-component_of_WINDS"},"data":[0,0,0,0,0,0,0,0,0,0,0,0,0,0,0,0,0,0,0,0,0,0,0,0,0,0,0,0,0,0,0,0,0,0,0,0,0,0,0,0,0,0,0,0,0,0,0,0,0,0,0,0,0,0,0,0,0,0,5.3407,5.3408,0,5.3552,5.3554,5.3556,5.3554,5.3553,5.3551,5.3549,5.3695,5.37,5.3706,0,0,0,0,0,0,0,0,0,0,0,0,0,5.3126,5.3132,5.3407,5.3408,5.341,5.3552,5.3554,5.3556,5.3555,5.3552,5.355,5.3548,5.3693,5.37,5.3706,0,0,0,0,0,0,0,0,0,0,0,0,0,5.3258,5.3133,5.3406,5.3427,5.343,5.3552,5.3554,5.3557,5.3555,5.3552,5.355,5.3547,5.3691,5.3699,5.3707,5.3817,0,0,5.3733,5.3737,0,0,0,0,0,0,0,0,5.325,5.3268,5.3422,5.3426,5.343,5.3532,5.3509,5.3644,5.3556,5.3508,5.3549,5.3545,5.3643,5.3655,5.3689,5.3824,5.383,5.3734,5.3739,5.3743,5.3745,0,0,0,0,0,0,0,5.3241,5.3262,5.3464,5.3424,5.3429,5.3428,5.3444,5.3534,5.3589,5.3512,5.3512,5.3529,5.3644,5.368,5.3692,5.3833,5.3734,5.3741,5.3747,5.375,5.4069,5.4072,0,0,0,0,0,0,5.3228,5.3254,5.346,5.3469,5.3331,5.3436,5.3453,5.3502,5.3588,5.3599,5.3532,5.3529,5.3667,5.3682,5.3697,5.3834,5.3743,5.3751,5.3756,5.4066,5.407,5.4073,0,0,0,0,0,0,5.3222,5.3246,5.3454,5.3362,5.3388,5.3444,5.3499,5.3507,5.3543,5.3604,5.3613,5.3559,5.3666,5.3685,5.3788,5.3839,5.3755,5.3762,5.4062,5.4067,5.4072,5.4107,0,0,0,0,0,0,5.3214,5.3244,5.3287,5.3363,5.3393,5.3543,5.3502,5.3512,5.3558,5.3555,5.3631,5.3641,5.3665,5.3776,5.3797,5.3849,5.3769,5.4057,5.4064,5.407,5.4102,5.4113,5.4123,0,0,0,0,0,5.3204,5.3289,5.3289,5.3314,5.3447,5.3546,5.3563,5.359,5.3562,5.3605,5.3645,5.3639,5.383,5.3786,5.381,5.3866,5.4054,5.4062,5.4069,5.4097,5.4111,5.4122,0,0,0,0,0,0,5.3216,5.33,5.33,5.3412,5.3472,5.3545,5.3601,5.3602,5.367,5.3665,5.3694,5.3711,5.3815,5.385,5.38,5.3978,5.3939,5.3951,5.3952,5.3965,5.3975,5.3965,5.3776,0,0,0,0,0,5.3232,5.3306,5.3375,5.3467,5.3498,5.3544,5.3588,5.3604,5.3666,5.3691,5.3738,5.3798,5.3873,5.392,5.3991,5.4107,5.4125,5.4157,5.4167,5.4175,5.4186,5.4253,5.4269,5.4098,5.4098,5.4098,0,0,5.3265,5.332,5.3365,5.3471,5.3519,5.3596,5.3565,5.3646,5.3703,5.3703,5.3805,5.3841,5.3911,5.4021,5.4072,5.4054,5.4238,5.4185,5.4191,5.4198,5.4262,5.4279,5.4293,5.4103,5.4102,5.4102,0,0,5.3366,5.3414,5.3498,5.3548,5.3622,5.3653,5.3673,5.3747,5.3772,5.3875,5.3877,5.3945,5.4071,5.4121,5.4163,5.4286,5.4284,5.4308,5.4363,5.4427,5.4441,5.4453,5.4499,5.4515,5.4319,5.4319,5.4319,0,5.3398,5.3513,5.3541,5.3624,5.3671,5.3677,5.3763,5.3809,5.3902,5.3935,5.3913,5.4074,5.4121,5.4245,5.4275,5.4308,5.4333,5.43,5.4436,5.4449,5.4461,5.4505,5.4522,5.4322,5.4321,5.4321,5.4321,0,5.355,5.363,5.3689,5.3782,5.3836,5.3919,5.396,5.4012,5.4023,5.4056,5.4162,5.4219,5.4303,5.4333,5.4344,5.446,5.4447,5.443,5.4391,5.4479,5.4522,5.4539,5.4325,5.4324,5.4324,5.4323,0,0,5.3661,5.377,5.3791,5.3835,5.3918,5.3981,5.4065,5.415,5.4194,5.4258,5.4331,5.4439,5.4426,5.4474,5.4491,5.4547,5.4644,5.4524,5.4527,5.4547,5.4778,5.4792,5.4811,5.4643,5.4646,5.4649,5.4773,0,5.3772,5.3924,5.3953,5.4085,5.4161,5.4168,5.4242,5.4302,5.4335,5.4404,5.4441,5.4519,5.4494,5.4523,5.4579,5.462,5.4691,5.4611,5.4712,5.4715,5.4696,5.4832,5.4846,5.4961,5.479,5.4793,5.4795,0,5.3921,5.3993,5.4133,5.421,5.4243,5.4309,5.439,5.4455,5.4524,5.4544,5.46,5.4611,5.47,5.4656,5.478,5.4725,5.4768,5.4794,5.4799,5.4811,5.4761,5.485,5.4998,5.5016,5.482,5.4818,5.4817,0,5.3992,5.4122,5.4224,5.4261,5.4352,5.4399,5.4438,5.4504,5.4554,5.4624,5.4657,5.4736,5.478,5.4841,5.4874,5.4838,5.4996,5.4954,5.5017,5.5017,5.5051,5.5049,5.521,5.5075,5.5075,5.5075,5.5074,0,5.4114,5.42,5.4258,5.432,5.4418,5.445,5.4546,5.4585,5.4643,5.4714,5.4724,5.479,5.4828,5.49,5.4926,5.5026,5.5045,5.5065,5.5071,5.5066,5.5064,5.5095,5.5089,5.5079,5.5078,5.5077,5.5076,0,5.4209,5.4251,5.4363,5.4441,5.4463,5.4531,5.4598,5.466,5.4694,5.4784,5.4807,5.4861,5.4946,5.4985,5.5089,5.5107,5.5222,5.5221,5.52,5.5202,5.5264,5.5259,5.5453,5.5481,5.5325,5.5327,5.5328,0,5.4285,5.4352,5.4438,5.4488,5.453,5.4608,5.466,5.4694,5.4748,5.4832,5.4884,5.4971,5.5042,5.5178,5.5226,5.5307,5.531,5.5372,5.5322,5.5315,5.5314,5.5311,5.5319,5.5382,5.5383,5.5385,5.5386,0,5.4416,5.4435,5.4509,5.4593,5.4655,5.4722,5.4787,5.4826,5.4871,5.4931,5.502,5.5075,5.5184,5.527,5.5355,5.5396,5.5399,5.5401,5.5421,5.5416,5.5402,5.5413,5.5227,5.5397,5.5396,5.5395,5.5394,5.5394,5.4506,5.4568,5.4639,5.4723,5.4776,5.4838,5.4901,5.4944,5.5019,5.5112,5.5127,5.5223,5.5291,5.5406,5.545,5.5525,5.551,5.5537,5.5544,5.5551,5.5556,5.5389,5.554,5.554,5.5539,5.5539,5.5539,0,5.464,5.4688,5.4764,5.4857,5.4924,5.4922,5.4995,5.5051,5.5135,5.5199,5.527,5.5374,5.5458,5.5514,5.5599,5.5649,5.5653,5.5671,5.5668,5.5678,5.5563,5.554,5.5666,5.5666,5.5666,5.5666,5.5666,5.5666,5.4718,5.4823,5.485,5.4982,5.5028,5.5123,5.5165,5.5223,5.5275,5.539,5.5461,5.5498,5.556,5.565,5.5728,5.5742,5.5774,5.5793,5.5807,5.5699,5.5686,5.5673,5.5651,5.5799,5.5799,5.5916,5.5917,5.5918]}]]